Clarksburg, WV

3:55 PM EST on December 11, 2019 (GMT -0500)
Benedum

Weather History for KCKB - September, 2019

Change the Weather History Date:

Wednesday, September 4, 2019

  Actual Average Record
Temperature  
Mean Temperature 76 °F -  
Max Temperature 88 °F 81 °F 102 °F (1953)
Min Temperature 64 °F 58 °F 39 °F (1946)
Cooling Degree Days 10    
Growing Degree Days 26 (Base 50)    
Moisture  
Dew Point 63 °F    
Average Humidity 67    
Maximum Humidity 87    
Minimum Humidity 48    
Precipitation  
Precipitation 0.00 in - - ()
Sea Level Pressure  
Sea Level Pressure 29.98 in    
Wind  
Wind Speed 5 mph (WSW)    
Max Wind Speed 12 mph    
Max Gust Speed -    
Visibility 10 miles    
Events      
Averages and records for this station are not official NWS values.
T = Trace of Precipitation, MM = Missing Value Source: NWS Daily Summary

Daily Weather History Graph

Daily Weather History Graph

Search for Another Location

Airport or City:

Astronomy

Sep. 04, 2019 Rise Set
Actual Time 6:51 AM EDT 7:47 PM EDT
Civil Twilight 6:24 AM EDT 8:14 PM EDT
Nautical Twilight 5:52 AM EDT 8:46 PM EDT
Astronomical Twilight 5:18 AM EDT 9:20 PM EDT
Moon 12:49 PM EDT (9/4) 11:23 PM EDT (9/4)
Length of Visible Light 13h 50m
Length of Day
12h 55m
Waxing Crescent, 34% of the Moon is Illuminated
Sep 4
Waxing Crescent
Sep 5
First Quarter
Sep 14
Full
Sep 21
Last Quarter
Sep 28
New

Hourly Weather History & Observations

Time (EDT) Temp. Heat Index Dew Point Humidity Pressure Visibility Wind Dir Wind Speed Gust Speed Precip Events Conditions
12:53 AM 66.0 °F - 61.0 °F 84% 29.97 in 10.0 mi Calm Calm - N/A   Clear
1:53 AM 64.9 °F - 61.0 °F 87% 29.96 in 10.0 mi SSE 3.5 mph - N/A   Clear
2:53 AM 66.9 °F - 62.1 °F 84% 29.95 in 10.0 mi Calm Calm - N/A   Clear
3:53 AM 66.0 °F - 61.0 °F 84% 29.95 in 10.0 mi South 3.5 mph - N/A   Clear
4:53 AM 66.9 °F - 61.0 °F 81% 29.94 in 10.0 mi Calm Calm - N/A   Clear
5:53 AM 68.0 °F - 60.1 °F 76% 29.95 in 10.0 mi South 5.8 mph - N/A   Clear
6:53 AM 69.1 °F - 61.0 °F 75% 29.96 in 10.0 mi SSW 5.8 mph - N/A   Scattered Clouds
7:12 AM 69.1 °F - 61.0 °F 75% 30.02 in 10.0 mi SSW 5.8 mph - N/A   Mostly Cloudy
7:53 AM 71.1 °F - 62.1 °F 73% 29.98 in 10.0 mi SSW 5.8 mph - N/A   Mostly Cloudy
8:53 AM 73.0 °F - 63.0 °F 71% 29.99 in 10.0 mi SSW 6.9 mph - N/A   Overcast
9:43 AM 75.0 °F - 64.0 °F 69% 30.04 in 10.0 mi Variable 3.5 mph - N/A   Mostly Cloudy
9:53 AM 75.9 °F - 64.0 °F 67% 30.00 in 10.0 mi SW 5.8 mph - N/A   Overcast
10:53 AM 77.0 °F - 64.9 °F 66% 30.00 in 10.0 mi SW 10.4 mph - N/A   Overcast
11:53 AM 81.0 °F 83.3 °F 66.9 °F 62% 29.99 in 10.0 mi SW 9.2 mph - N/A   Mostly Cloudy
12:05 PM 82.0 °F 84.9 °F 68.0 °F 62% 30.03 in 10.0 mi WSW 9.2 mph - N/A   Scattered Clouds
12:53 PM 84.0 °F 88.4 °F 70.0 °F 63% 29.97 in 10.0 mi South 5.8 mph - N/A   Mostly Cloudy
1:53 PM 84.0 °F 86.5 °F 66.9 °F 56% 29.96 in 10.0 mi West 11.5 mph - N/A   Mostly Cloudy
2:53 PM 84.0 °F 86.3 °F 66.0 °F 55% 29.95 in 10.0 mi West 10.4 mph - N/A   Partly Cloudy
3:53 PM 86.0 °F 88.8 °F 66.9 °F 53% 29.94 in 10.0 mi NW 11.5 mph - N/A   Clear
4:53 PM 87.1 °F 89.2 °F 66.0 °F 49% 29.94 in 10.0 mi WNW 10.4 mph - N/A   Clear
5:53 PM 86.0 °F 87.3 °F 64.0 °F 48% 29.95 in 10.0 mi NNW 6.9 mph - N/A   Clear
6:53 PM 82.0 °F 83.0 °F 62.1 °F 51% 29.96 in 10.0 mi NNW 8.1 mph - N/A   Clear
7:53 PM 78.1 °F - 61.0 °F 56% 29.98 in 10.0 mi North 4.6 mph - N/A   Clear
8:53 PM 73.0 °F - 61.0 °F 66% 29.99 in 10.0 mi NNE 3.5 mph - N/A   Clear
9:53 PM 71.1 °F - 59.0 °F 66% 30.01 in 10.0 mi NNE 5.8 mph - N/A   Clear
10:53 PM 70.0 °F - 59.0 °F 68% 30.02 in 10.0 mi North 3.5 mph - N/A   Partly Cloudy
11:53 PM 69.1 °F - 59.0 °F 70% 30.02 in 10.0 mi NNE 10.4 mph - N/A   Clear